Location: Conjunto Santa Maria
(19.9513°S, 43.9599°W)
Time: 17:45:45
(UTC+00:00)

ARGOS - Pass Details

Date: 21 January 2021
Orbit: 821 x 834 km, 98.4° (Epoch: 01 March)

Event Time Altitude Azimuth Distance (km) Brightness Sun altitude
Rises 21:56:37 0° 151° (SSE) 3,374 6.3 -4.2°
Reaches altitude 10° 21:59:18 10° 140° (SE) 2,433 5.4 -4.8°
Maximum altitude 22:03:53 28° 81° (E) 1,495 4.0 -5.8°
Drops below altitude 10° 22:08:24 10° 23° (NNE) 2,409 5.2 -6.8°
Sets 22:11:02 0° 11° (NNE) 3,334 6.0 -7.3°
